DW9425 Weather Reports


Display with metric or nautical units.
time (UTC)temp
F
wind
direction
speed
MPH
gust
MPH
rain 1hr
in
rain 24hr
in
rain mn
in
humidity
%
barometer
mb
20260902143039 62 317 3.0 8.0 0.00 0.00 0.00 75 1023.3
20260902141538 61 344 6.0 10.0 0.00 0.00 0.00 77 1023.1
20260902140031 60 333 5.0 10.0 0.00 0.00 0.00 79 1023.1
20260902134532 59 345 4.0 6.0 0.00 0.00 0.00 80 1022.9
20260902133019 59 333 2.0 8.0 0.00 0.00 0.00 79 1022.8
20260902131615 58 355 2.0 4.0 0.00 0.00 0.00 78 1022.5
20260902130038 58 355 1.0 4.0 0.00 0.00 0.00 79 1022.4
20260902124539 58 360 2.0 5.0 0.00 0.00 0.00 80 1022.4
20260902123034 58 355 1.0 4.0 0.00 0.00 0.00 79 1022.4
20260902121531 58 355 2.0 4.0 0.00 0.00 0.00 79 1022.2
20260902120029 59 355 0.0 4.0 0.00 0.00 0.00 79 1022.2
20260902114529 59 355 0.0 0.0 0.00 0.05 0.00 79 1022.3
20260902113027 59 355 0.0 4.0 0.00 0.05 0.00 79 1022.2
20260902111525 60 355 2.0 4.0 0.00 0.05 0.00 79 1022.2
20260902110022 60 355 0.0 3.0 0.00 0.05 0.00 78 1022.2
20260902104535 61 355 2.0 4.0 0.00 0.05 0.00 78 1022.1
20260902103022 61 355 3.0 6.0 0.00 0.05 0.00 78 1022.1
20260902101528 61 87 1.0 3.0 0.00 0.05 0.00 74 1022.2
20260902100016 62 87 1.0 2.0 0.00 0.05 0.00 75 1022.1
20260902094514 62 87 0.0 0.0 0.00 0.05 0.00 74 1022.1
20260902093013 63 87 0.0 0.0 0.00 0.05 0.00 74 1022.1
20260902091511 63 87 0.0 2.0 0.00 0.05 0.00 75 1022.1
20260902090009 63 87 0.0 0.0 0.00 0.05 0.00 73 1022.1
20260902084507 64 87 0.0 0.0 0.00 0.24 0.00 72 1022.1
20260902083007 64 87 0.0 2.0 0.00 0.24 0.00 71 1022.2
20260902081505 64 87 0.0 2.0 0.00 0.24 0.00 71 1022.2
20260902080003 65 87 0.0 0.0 0.00 0.28 0.00 70 1022.3
20260902073058 66 87 1.0 3.0 0.00 0.28 0.00 66 1022.5
20260902071556 67 87 0.0 2.0 0.00 0.28 0.00 65 1022.4
20260902070054 67 87 2.0 3.0 0.00 0.28 0.00 65 1022.3
20260902064652 68 49 1.0 3.0 0.00 0.28 0.00 63 1022.2
20260902063051 68 49 1.0 3.0 0.00 0.28 0.00 63 1022.2
20260902061555 68 49 0.0 1.0 0.00 0.28 0.00 63 1022.1
20260902060046 68 49 0.0 0.0 0.00 0.28 0.00 64 1022.1
20260902054547 68 49 0.0 0.0 0.00 0.28 0.27 64 1022.2
20260902053053 68 49 0.0 0.0 0.00 0.28 0.27 65 1022.2
20260902051550 68 49 0.0 2.0 0.00 0.28 0.27 65 1022.3
20260902050045 68 49 0.0 0.0 0.00 0.28 0.27 64 1022.3
20260902044545 69 49 0.0 0.0 0.00 0.30 0.27 63 1022.3
20260902043044 69 49 0.0 0.0 0.00 0.30 0.27 63 1022.4
20260902041545 69 49 0.0 3.0 0.00 0.30 0.27 62 1022.4
20260902040043 69 49 1.0 2.0 0.00 0.30 0.27 61 1022.2
20260902034555 70 49 2.0 3.0 0.00 0.30 0.27 60 1022.1
20260902033055 69 49 0.0 2.0 0.00 0.30 0.27 58 1021.9
20260902031542 70 49 2.0 4.0 0.00 0.30 0.27 57 1021.7
20260902030041 70 49 0.0 3.0 0.00 0.30 0.27 57 1021.6
20260902024545 70 53 0.0 4.0 0.00 0.30 0.27 56 1021.5
20260902023042 70 29 1.0 5.0 0.00 0.30 0.27 56 1021.3
20260902021540 71 342 4.0 11.0 0.00 0.30 0.27 56 1021.2
20260902020041 71 329 4.0 9.0 0.00 0.30 0.27 56 1021.0
20260902014540 72 343 4.0 13.0 0.00 0.30 0.27 55 1020.9
20260902013039 75 300 6.0 14.0 0.00 0.30 0.27 49 1020.8
20260902011538 76 238 4.0 8.0 0.00 0.30 0.27 40 1020.7
20260902010037 76 234 4.0 9.0 0.00 0.30 0.27 39 1020.7
20260902004538 77 313 3.0 8.0 0.00 0.30 0.27 39 1020.6
20260902003036 78 207 5.0 11.0 0.00 0.30 0.27 36 1020.6
20260902001536 79 240 3.0 11.0 0.00 0.30 0.27 36 1020.7
20260902000038 79 196 3.0 10.0 0.00 0.30 0.27 35 1020.7
20260901234538 81 257 5.0 11.0 0.00 0.31 0.27 34 1020.8
20260901233039 81 246 8.0 14.0 0.00 0.31 0.27 33 1020.9
20260901231532 82 244 2.0 8.0 0.00 0.31 0.27 33 1020.8
20260901230033 83 257 10.0 14.0 0.00 0.31 0.27 32 1020.9
20260901224535 83 244 5.0 10.0 0.00 0.31 0.27 33 1021.0
20260901223026 82 265 4.0 10.0 0.00 0.31 0.27 33 1021.1
20260901221524 82 232 4.0 9.0 0.00 0.31 0.27 36 1021.2
20260901220022 80 241 6.0 9.0 0.00 0.31 0.27 37 1021.3
20260901214523 81 225 4.0 9.0 0.00 0.31 0.27 38 1021.4
20260901213022 82 281 2.0 10.0 0.00 0.31 0.27 35 1021.5
20260901211525 81 225 4.0 14.0 0.00 0.31 0.27 38 1021.7
20260901210017 82 236 4.0 10.0 0.00 0.31 0.27 38 1021.8
20260901204513 82 223 6.0 11.0 0.00 0.31 0.27 39 1022.0
20260901203011 81 228 5.0 15.0 0.00 0.31 0.27 39 1022.1
20260901201510 81 276 2.0 12.0 0.00 0.31 0.27 40 1022.3
20260901200011 80 232 4.0 13.0 0.00 0.31 0.27 44 1022.4
20260901194510 78 246 4.0 9.0 0.00 0.31 0.27 46 1022.6
20260901193111 77 204 1.0 8.0 0.00 0.31 0.27 45 1022.7
20260901191603 77 193 2.0 7.0 0.00 0.31 0.27 45 1022.8
20260901190112 76 234 4.0 9.0 0.00 0.31 0.27 45 1023.0
20260901184556 75 246 5.0 8.0 0.00 0.31 0.27 47 1023.1
20260901183055 75 198 2.0 7.0 0.00 0.31 0.27 45 1023.2
20260901181559 75 197 0.0 8.0 0.00 0.31 0.27 44 1023.3
20260901180051 74 151 0.0 2.0 0.00 0.31 0.27 53 1023.4
20260901174547 72 317 0.0 3.0 0.00 0.31 0.27 53 1023.5
20260901173043 70 306 2.0 6.0 0.00 0.31 0.27 62 1023.6
20260901171552 69 304 1.0 9.0 0.00 0.31 0.27 66 1023.7
20260901170035 66 360 2.0 8.0 0.00 0.31 0.27 73 1023.7
20260901164535 66 297 3.0 10.0 0.00 0.31 0.27 73 1023.6
20260901163036 66 331 5.0 10.0 0.00 0.31 0.27 71 1023.5
20260901161531 66 341 3.0 8.0 0.00 0.31 0.27 75 1023.4
20260901160027 64 28 3.0 9.0 0.00 0.31 0.27 80 1023.4
20260901154526 62 42 1.0 8.0 0.00 0.31 0.27 84 1023.4
20260901153024 60 355 7.0 11.0 0.00 0.31 0.27 86 1023.4
20260901151530 59 355 3.0 9.0 0.00 0.31 0.27 90 1023.3
20260901150021 58 360 2.0 11.0 0.00 0.31 0.27 91 1023.2
20260901144520 58 5 5.0 11.0 0.00 0.31 0.27 92 1023.3